Regional Weather Roundup
Issued by NWS Cleveland, OH

Home | Current Version | Previous Version | Graphics & Text | Print | Product List | Glossary On
Versions: 1 2 3 4 5 6 7 8 9 10 11 12 13 14 15 16 17 18 19 20 21 22 23 24 25 26 27 28 29 30 31 32 33 34 35 36 37 38 39 40 41 42 43 44 45 46 47 48 49 50
000
ASUS41 KCLE 181200
RWRCLE
OHIO REGIONAL WEATHER ROUNDUP
NATIONAL WEATHER SERVICE WILMINGTON, OH
800 AM EDT THU SEP 18 2014

NOTE: "FAIR" INDICATES FEW OR NO CLOUDS BELOW 12,000 FEET WITH NO
SIGNIFICANT WEATHER AND/OR OBSTRUCTIONS TO VISIBILITY.

OHZ001>008-015>018-024>027-034-035-043-044-181300-
   NORTHWEST OHIO

CITY           SKY/WX    TMP DP  RH WIND       PRES   REMARKS
DEFIANCE       CLEAR     47  43  86 N3        30.09S FOG
FINDLAY        FOG       47  45  93 CALM      30.07S VSB 3/4
TOLEDO EXPRESS CLEAR     46  43  89 CALM      30.09R
TOLEDO METCALF CLEAR     49  44  83 N6        30.09R
LIMA           CLEAR     45  44  97 CALM      30.07R FOG
$$

OHZ009>014-019>023-028>033-038-089-181300-
   NORTHEAST OHIO

CITY           SKY/WX    TMP DP  RH WIND       PRES   REMARKS
CLE-HOPKINS    PTCLDY    50  47  89 S3        30.09R
CLE-LAKEFRONT  CLEAR     54  48  80 S6        30.05R
CUY CO. ARPT   PTCLDY    48  48 100 CALM      30.07R
LORAIN-ELYRIA  CLEAR     51  48  89 SW3       30.08S FOG
ASHTABULA      CLEAR     45  44  97 CALM      30.07R FOG
AKRON-CANTON   PTCLDY    51  47  86 CALM      30.07R FOG
WOOSTER        FOG       45  42  89 CALM      30.08R VSB 1/4
MANSFIELD      CLOUDY    50  48  93 N3        30.08R
YOUNGSTOWN     FOG       45  45 100 CALM      30.06R VSB 1/8
$$

OHZ042-051>053-060>062-070>072-077>081-181300-
  SOUTHWEST OHIO

CITY           SKY/WX    TMP DP  RH WIND       PRES   REMARKS
CINC-COVINGTON PTCLDY    53  48  83 CALM      30.06R
CINC-LUNKEN    CLEAR     47  46  97 CALM      30.07R
HAMILTON       CLEAR     45  44  97 CALM      30.07R FOG
DAYTON         NOT AVBL
WRIGHT-PAT AFB NOT AVBL
DAYTON GENERAL CLEAR     49  47  93 NE7       30.05R
WILMINGTON     CLEAR     48  44  86 N6        30.05R
$$

OHZ036-037-039>041-045>050-054>059-063>069-073>076-082>088-181300-
  CENTRAL AND SOUTHEAST OHIO

CITY           SKY/WX    TMP DP  RH WIND       PRES   REMARKS
COLUMBUS       CLEAR     52  47  83 N3        30.06R HAZE
OSU AIRPORT    CLEAR     48  46  93 N3        30.07R FOG
BOLTON FIELD   CLEAR     46  46 100 CALM      30.06S
RICKENBACK AFB NOT AVBL
NEWARK         CLEAR     47  45  93 CALM      30.06R FOG
MARION         FOG       43  42  97 CALM      30.08R VSB 1/4
LANCASTER      CLEAR     47  45  93 CALM      30.06R FOG
ZANESVILLE     PTCLDY    50  47  89 CALM      30.06R FOG
NEW PHILLY     CLEAR     49  47  93 CALM      30.07R FOG
$$


USA.gov is the U.S. government's official web portal to all federal, state and local government web resources and services.